Weather History for KAUM - January, 2013

Change the Weather History Date:

Sunday, January 13, 2013

  Actual Average Record
Temperature  
Mean Temperature 6 °F -  
Max Temperature 10 °F 20 °F 44 °F (2002)
Min Temperature 3 °F 7 °F -16 °F (2009)
Degree Days  
Heating Degree Days 58    
Moisture  
Dew Point -1 °F    
Average Humidity 73    
Maximum Humidity 79    
Minimum Humidity 67    
Precipitation  
Precipitation 0.00 in - - ()
Sea Level Pressure  
Sea Level Pressure 30.09 in    
Wind  
Wind Speed 10 mph (WNW)    
Max Wind Speed 14 mph    
Max Gust Speed 21 mph    
Visibility 10 miles    
Events Snow    
Averages and records for this station are not official NWS values.
T = Trace of Precipitation, MM = Missing Value Source: NWS Daily Summary

Daily Weather History Graph

Daily Weather History Graph

Search for Another Location

Airport or City:

Trip Planner

Search our weather history database for the weather conditions in past years. The results will help you decide how hot, cold, wet, or windy it might be!

Date:

Astronomy

Jan. 13, 2013 Rise Set
Actual Time 7:43 AM CST 4:58 PM CST
Civil Twilight 7:11 AM CST 5:30 PM CST
Nautical Twilight 6:35 AM CST 6:06 PM CST
Astronomical Twilight 6:01 AM CST 6:40 PM CST
Moon 8:36 AM CST (1/13) 7:43 PM CST (1/13)
Length of Visible Light 10h 19m
Length of Day
9h 15m
Waxing Crescent, 5% of the Moon is Illuminated
Jan 13
Waxing Crescent
Jan 18
First Quarter
Jan 26
Full
Feb 3
Last Quarter
Feb 10
New

Hourly Weather History & Observations

Time (CST) Temp. Windchill Dew Point Humidity Pressure Visibility Wind Dir Wind Speed Gust Speed Precip Events Conditions
12:15 AM 8.6 °F -5.5 °F 1.4 °F 73% 30.01 in 7.0 mi NW 10.4 mph - N/A   Overcast
12:36 AM 6.8 °F -7.8 °F -0.4 °F 72% 30.00 in 7.0 mi NW 10.4 mph - N/A   Overcast
12:55 AM 6.8 °F -9.3 °F -0.4 °F 72% 30.01 in 10.0 mi WNW 12.7 mph 18.4 mph N/A   Mostly Cloudy
1:15 AM 6.8 °F -7.8 °F -0.4 °F 72% 30.00 in 10.0 mi NW 10.4 mph - N/A   Scattered Clouds
1:35 AM 5.0 °F -12.3 °F -2.2 °F 72% 30.00 in 10.0 mi NW 13.8 mph 18.4 mph N/A   Mostly Cloudy
1:55 AM 5.0 °F -10.0 °F -2.2 °F 72% 30.01 in 10.0 mi NW 10.4 mph 17.3 mph N/A   Scattered Clouds
2:15 AM 3.2 °F -13.1 °F -2.2 °F 78% 30.01 in 10.0 mi WNW 11.5 mph - N/A   Scattered Clouds
2:36 AM 3.2 °F -12.2 °F -2.2 °F 78% 30.02 in 10.0 mi WNW 10.4 mph - N/A   Scattered Clouds
2:55 AM 3.2 °F -13.1 °F -2.2 °F 78% 30.02 in 10.0 mi WNW 11.5 mph 17.3 mph N/A   Mostly Cloudy
3:15 AM 3.2 °F -11.3 °F -2.2 °F 78% 30.01 in 10.0 mi NW 9.2 mph - N/A   Scattered Clouds
3:36 AM 3.2 °F -12.2 °F -2.2 °F 78% 30.01 in 10.0 mi WNW 10.4 mph - N/A   Mostly Cloudy
3:55 AM 3.2 °F -12.2 °F -2.2 °F 78% 29.99 in 10.0 mi WNW 10.4 mph - N/A   Overcast
4:15 AM 3.2 °F -12.2 °F -2.2 °F 78% 30.00 in 10.0 mi WNW 10.4 mph 16.1 mph N/A   Overcast
4:36 AM 3.2 °F -11.3 °F -2.2 °F 78% 30.01 in 10.0 mi WNW 9.2 mph - N/A   Overcast
4:55 AM 3.2 °F -12.2 °F -2.2 °F 78% 30.01 in 10.0 mi WNW 10.4 mph - N/A   Overcast
5:15 AM 3.2 °F -13.1 °F -2.2 °F 78% 30.01 in 7.0 mi WNW 11.5 mph 16.1 mph N/A   Overcast
5:36 AM 3.2 °F -12.2 °F -4.0 °F 72% 30.02 in 10.0 mi NW 10.4 mph - N/A   Mostly Cloudy
5:55 AM 3.2 °F -12.2 °F -4.0 °F 72% 30.04 in 10.0 mi WNW 10.4 mph - N/A   Scattered Clouds
6:15 AM 3.2 °F -11.3 °F -4.0 °F 72% 30.04 in 10.0 mi WNW 9.2 mph - N/A   Clear
6:35 AM 3.2 °F -12.2 °F -4.0 °F 72% 30.06 in 10.0 mi WNW 10.4 mph - N/A   Scattered Clouds
6:55 AM 3.2 °F -9.1 °F -4.0 °F 72% 30.06 in 10.0 mi NW 6.9 mph - N/A   Scattered Clouds
7:15 AM 3.2 °F -10.3 °F -4.0 °F 72% 30.07 in 10.0 mi WNW 8.1 mph - N/A   Scattered Clouds
7:35 AM 3.2 °F -9.1 °F -2.2 °F 78% 30.07 in 10.0 mi WNW 6.9 mph - N/A   Overcast
7:55 AM 3.2 °F -7.8 °F -2.2 °F 78% 30.08 in 10.0 mi NW 5.8 mph - N/A   Overcast
8:15 AM 3.2 °F -10.3 °F -2.2 °F 78% 30.09 in 7.0 mi WNW 8.1 mph - N/A   Overcast
8:35 AM 3.2 °F -11.3 °F -2.2 °F 78% 30.09 in 7.0 mi NW 9.2 mph - N/A   Overcast
9:15 AM 3.2 °F -12.2 °F -2.2 °F 78% 30.09 in 10.0 mi WNW 10.4 mph - N/A   Overcast
9:35 AM 3.2 °F -13.1 °F -2.2 °F 78% 30.09 in 10.0 mi WNW 11.5 mph - N/A   Unknown
9:55 AM 3.2 °F -11.3 °F -2.2 °F 78% 30.09 in 10.0 mi WNW 9.2 mph - N/A   Mostly Cloudy
10:16 AM 3.2 °F - -2.2 °F 78% 30.08 in - Calm Calm - N/A   Scattered Clouds
10:35 AM 6.8 °F -7.8 °F -2.2 °F 67% 30.07 in 10.0 mi NW 10.4 mph 20.7 mph N/A   Mostly Cloudy
10:55 AM 6.8 °F -8.6 °F -2.2 °F 67% 30.07 in 10.0 mi WNW 11.5 mph - N/A   Mostly Cloudy
11:15 AM 6.8 °F -9.3 °F -0.4 °F 72% 30.06 in 10.0 mi West 12.7 mph - N/A   Mostly Cloudy
11:35 AM 6.8 °F -7.8 °F -0.4 °F 72% 30.06 in 10.0 mi WNW 10.4 mph - N/A   Mostly Cloudy
11:56 AM 8.6 °F -7.0 °F -0.4 °F 67% 30.05 in 10.0 mi WNW 12.7 mph - N/A   Mostly Cloudy
12:15 PM 8.6 °F -5.5 °F -0.4 °F 67% 30.05 in 10.0 mi WNW 10.4 mph 16.1 mph N/A   Overcast
12:35 PM 8.6 °F -5.5 °F -0.4 °F 67% 30.06 in 10.0 mi West 10.4 mph 17.3 mph N/A Snow Light Snow
12:55 PM 8.6 °F -5.5 °F 1.4 °F 73% 30.06 in 10.0 mi WNW 10.4 mph 17.3 mph N/A   Overcast
1:15 PM 8.6 °F -4.7 °F -0.4 °F 67% 30.06 in 10.0 mi West 9.2 mph 17.3 mph N/A   Mostly Cloudy
1:35 PM 8.6 °F -3.7 °F -0.4 °F 67% 30.06 in 7.0 mi WNW 8.1 mph - N/A   Mostly Cloudy
1:55 PM 8.6 °F -6.3 °F -0.4 °F 67% 30.06 in 10.0 mi West 11.5 mph 17.3 mph N/A   Overcast
2:15 PM 8.6 °F -4.7 °F 1.4 °F 73% 30.07 in 7.0 mi West 9.2 mph 18.4 mph N/A   Overcast
2:35 PM 8.6 °F -6.3 °F 1.4 °F 73% 30.08 in 4.0 mi WNW 11.5 mph 17.3 mph N/A Snow Light Snow
2:54 PM 8.6 °F -7.7 °F 1.4 °F 73% 30.08 in 10.0 mi WNW 13.8 mph 18.4 mph N/A   Overcast
3:15 PM 8.6 °F -7.0 °F 1.4 °F 73% 30.09 in 10.0 mi West 12.7 mph 17.3 mph N/A   Unknown
3:35 PM 10.4 °F -1.5 °F 1.4 °F 67% 30.10 in - West 8.1 mph - N/A   Unknown
3:55 PM 10.4 °F -3.3 °F 1.4 °F 67% 30.10 in 10.0 mi West 10.4 mph - N/A   Overcast
4:16 PM 10.4 °F -3.3 °F 1.4 °F 67% 30.11 in 10.0 mi WNW 10.4 mph - N/A   Overcast
4:35 PM 8.6 °F -5.5 °F 1.4 °F 73% 30.12 in 10.0 mi West 10.4 mph 18.4 mph N/A   Mostly Cloudy
4:55 PM 8.6 °F -7.0 °F 1.4 °F 73% 30.11 in 10.0 mi WNW 12.7 mph 18.4 mph N/A   Mostly Cloudy
5:15 PM 8.6 °F -3.7 °F 1.4 °F 73% 30.12 in 10.0 mi West 8.1 mph 18.4 mph N/A   Mostly Cloudy
5:35 PM 8.6 °F -6.3 °F 1.4 °F 73% 30.13 in 10.0 mi West 11.5 mph - N/A   Mostly Cloudy
5:55 PM 8.6 °F -6.3 °F 1.4 °F 73% 30.13 in 10.0 mi WNW 11.5 mph - N/A   Scattered Clouds
6:16 PM 8.6 °F -6.3 °F 1.4 °F 73% 30.14 in 10.0 mi WNW 11.5 mph 17.3 mph N/A   Clear
6:35 PM 8.6 °F -5.5 °F 1.4 °F 73% 30.14 in 10.0 mi WNW 10.4 mph - N/A   Clear
6:55 PM 8.6 °F -7.0 °F 1.4 °F 73% 30.16 in 10.0 mi West 12.7 mph 18.4 mph N/A   Clear
7:14 PM 6.8 °F -7.8 °F 1.4 °F 79% 30.17 in 10.0 mi West 10.4 mph - N/A   Clear
7:35 PM 6.8 °F -5.9 °F 1.4 °F 79% 30.17 in 10.0 mi West 8.1 mph - N/A   Clear
7:55 PM 6.8 °F -7.8 °F 1.4 °F 79% 30.18 in 10.0 mi WNW 10.4 mph 16.1 mph N/A   Clear
8:15 PM 6.8 °F -6.9 °F 1.4 °F 79% 30.18 in 10.0 mi WNW 9.2 mph - N/A   Clear
8:35 PM 6.8 °F -5.9 °F -0.4 °F 72% 30.19 in 10.0 mi WNW 8.1 mph - N/A   Clear
8:55 PM 6.8 °F -4.8 °F -0.4 °F 72% 30.20 in 10.0 mi WNW 6.9 mph - N/A   Clear
9:15 PM 6.8 °F -5.9 °F -0.4 °F 72% 30.20 in 10.0 mi WNW 8.1 mph - N/A   Clear
9:35 PM 6.8 °F -3.5 °F -2.2 °F 67% 30.20 in 10.0 mi WNW 5.8 mph - N/A   Clear
9:55 PM 6.8 °F -3.5 °F -2.2 °F 67% 30.20 in 10.0 mi WNW 5.8 mph - N/A   Clear
10:15 PM 6.8 °F -4.8 °F -0.4 °F 72% 30.21 in 10.0 mi WNW 6.9 mph - N/A   Clear
10:35 PM 6.8 °F -4.8 °F -0.4 °F 72% 30.21 in 10.0 mi WNW 6.9 mph - N/A   Clear
10:55 PM 6.8 °F -2.0 °F -0.4 °F 72% 30.22 in 10.0 mi West 4.6 mph - N/A   Clear
11:15 PM 5.0 °F - -0.4 °F 78% 30.22 in 10.0 mi Calm Calm - N/A   Clear
11:35 PM 6.8 °F -0.1 °F -0.4 °F 72% 30.22 in 10.0 mi West 3.5 mph - N/A   Clear
11:55 PM 6.8 °F - -0.4 °F 72% 30.23 in 10.0 mi Calm Calm - N/A   Clear